Weather Roundup
Issued by NWS

Home | Current Version | Previous Version | Graphics & Text | Print | Product List | Glossary Off
Versions: 1 2 3 4 5 6 7 8 9 10 11 12 13 14 15 16 17 18 19 20 21 22 23 24 25 26 27 28 29 30 31 32 33 34 35 36 37 38 39 40 41 42 43 44 45 46 47 48 49 50

000
NZUS93 KARX 230110
HRRWXR

CURRENT HOURLY OBSERVATIONS ACROSS
MUCH OF THE UPPER MISSISSIPPI VALLEY
NATIONAL WEATHER SERVICE LA CROSSE WI
800 PM CDT FRI SEP 22 2017


...SOUTHEAST MINNESOTA...


CITY           SKY/WX    TMP DP  RH WIND       PRES   REMARKS
ROCHESTER      CLEAR     81  66  60 S15       29.91R
ROCHESTER/MAYO FAIR      83  64  51 SE9G16    29.90R
WINONA         CLEAR     82  63  51 S5        29.90R
AUSTIN         CLEAR     81  66  61 S8        29.90R
ALBERT LEA     CLEAR     84  70  61 S10G16    29.88R
DODGE CENTER   CLEAR     81  64  57 S13G18    29.89R
PRESTON        CLEAR     80  64  56 S14       29.93S
OWATONNA       CLEAR     82  68  61 S16       29.86R
FARIBAULT      CLEAR     84  68  58 S14G20    29.85R
$$

...ELSEWHERE IN MINNESOTA...


CITY           SKY/WX    TMP DP  RH WIND       PRES   REMARKS
MINNEAPOLIS    PTCLDY    88  68  51 S12       29.81R HX  91
INTNL FALLS    CLOUDY    71  69  93 E3        29.76F
DULUTH         CLOUDY    67  65  93 SE13      29.81S
RED WING       CLEAR     84  63  48 S12       29.84R
REDWOOD FALLS  MOCLDY    86  68  54 S17       29.75S
MANKATO        PTCLDY    84  68  58 S13G20    29.82R
WORTHINGTON    CLOUDY    83  69  62 S16G24    29.80S
FAIRMONT       CLEAR     82  66  58 S13       29.84R
$$

...SOUTHWEST WISCONSIN...


CITY           SKY/WX    TMP DP  RH WIND       PRES   REMARKS
LA CROSSE      CLEAR     86  68  54 S8        29.91R
PRAIRIE DU CHI CLEAR     83  64  52 SE7       29.95R
BOSCOBEL       CLEAR     85  66  53 S6        29.96S
LONE ROCK      CLEAR     76  68  76 S3        29.97S
PLATTEVILLE    CLEAR     79  68  69 SE7       30.00S
FORT MC COY    CLEAR     80  67  64 S7        29.95S
CAMP DOUGLAS   CLEAR     80  66  62 S5        29.96S
MAUSTON-NEW LI CLEAR     75  69  81 CALM      29.96S
VIROQUA        FAIR      79  68  70 S8        29.98S
WIS DELLS      CLEAR     79  62  56 S6        29.98S
$$

...ELSEWHERE IN WISCONSIN...


CITY           SKY/WX    TMP DP  RH WIND       PRES   REMARKS
MILWAUKEE      PTCLDY    80  67  64 S9        30.01S
MADISON        PTCLDY    81  66  60 S6        29.99S
GREEN BAY      CLEAR     74  71  91 S8        29.98S
EAU CLAIRE     CLEAR     83  67  58 S13       29.87F
BLACK RVR FLS  FAIR      81  65  57 SE5       29.93R
MEDFORD        CLEAR     74  66  76 S8        29.97R
WAUSAU         CLEAR     77  66  68 S7        29.96R
WIS RAPIDS     CLEAR     80  67  64 S6        29.99R
MARSHFIELD     CLEAR     77  65  66 S7        29.97R
RICE LAKE      CLEAR     79  66  64 SE7       29.88S
$$

...NORTHEAST IOWA...


CITY           SKY/WX    TMP DP  RH WIND       PRES   REMARKS
WATERLOO       CLEAR     82  65  56 S9        29.93R
DUBUQUE        CLEAR     78  68  71 S10       30.00S
DECORAH        CLEAR     81  66  61 S8        29.94S
MASON CITY     CLEAR     81  67  62 S15       29.91R
CHARLES CITY   CLEAR     82  68  61 S12       29.93R
OELWEIN        CLEAR     79  68  69 S8        29.96S
$$

...ELSEWHERE IN IOWA...


CITY           SKY/WX    TMP DP  RH WIND       PRES   REMARKS
DES MOINES     PTCLDY    83  68  60 SE8       29.90S
IOWA CITY      CLEAR     81  68  64 S3        29.98R
FORT DODGE     CLEAR     84  69  60 S12G18    29.89R
MARSHALLTOWN   CLEAR     81  69  67 SE7       29.92S
CEDAR RAPIDS   CLEAR     79  67  66 SE6       29.96R
$$

...NORTHERN ILLINOIS...


CITY           SKY/WX    TMP DP  RH WIND       PRES   REMARKS
CHICAGO-OHARE  CLEAR     83  65  54 SE9       30.02R
CHICAGO-MIDWAY CLEAR     86  68  54 SE8       30.03R
MOLINE         CLEAR     79  67  66 S7        29.98R
ROCKFORD       CLEAR     78  63  59 SE6       30.02R
PEORIA         CLEAR     80  67  64 CALM      30.01R
$$

NOTE: "FAIR" INDICATES FEW OR NO CLOUDS BELOW 12,000 FEET WITH NO
SIGNIFICANT WEATHER AND/OR OBSTRUCTIONS TO VISIBILITY. WIND
SPEEDS ARE IN MILES-PER-HOUR.




USA.gov is the U.S. government's official web portal to all federal, state and local government web resources and services.